�������r�C�����j�^�v���󋵏��
Date,Time,5�C6���@���p�r�C��,����,����(m/s)
2022/09/26,00:00,3.8,�k�k��,2.3
2022/09/26,00:10,3.6,�k�k��,2.0
2022/09/26,00:20,3.8,�k�k��,2.0
2022/09/26,00:30,3.7,�k��,2.6
2022/09/26,00:40,3.7,�k�k��,1.5
2022/09/26,00:50,3.7,�k�k��,1.7
2022/09/26,01:00,3.7,�k�k��,1.7
2022/09/26,01:10,3.7,�k�k��,1.5
2022/09/26,01:20,3.7,�k�k��,1.7
2022/09/26,01:30,3.7,�k�k��,2.5
2022/09/26,01:40,3.6,�k�k��,2.2
2022/09/26,01:50,3.7,�k,2.3
2022/09/26,02:00,3.7,�k�k��,3.1
2022/09/26,02:10,3.7,�k,2.3
2022/09/26,02:20,3.7,�k�k��,2.3
2022/09/26,02:30,3.8,�k�k��,2.3
2022/09/26,02:40,3.8,�k�k��,2.5
2022/09/26,02:50,3.7,�k�k��,2.3
2022/09/26,03:00,3.7,�k�k��,3.7
2022/09/26,03:10,3.6,�k�k��,3.7
2022/09/26,03:20,3.7,�k�k��,3.5
2022/09/26,03:30,3.5,�k�k��,4.4
2022/09/26,03:40,3.6,�k�k��,4.6
2022/09/26,03:50,3.7,�k�k��,4.5
2022/09/26,04:00,3.7,�k�k��,4.0
2022/09/26,04:10,3.7,�k�k��,3.8
2022/09/26,04:20,3.6,�k�k��,3.8
2022/09/26,04:30,3.6,�k�k��,4.3
2022/09/26,04:40,3.7,�k�k��,4.1
2022/09/26,04:50,3.5,�k�k��,4.6
2022/09/26,05:00,3.7,�k�k��,4.5
2022/09/26,05:10,3.7,�k�k��,4.4
2022/09/26,05:20,3.7,�k�k��,4.5
2022/09/26,05:30,3.8,�k�k��,4.8
2022/09/26,05:40,3.8,�k�k��,4.4
2022/09/26,05:50,3.8,�k�k��,4.6
2022/09/26,06:00,3.6,�k�k��,5.0
2022/09/26,06:10,3.7,�k�k��,4.1
2022/09/26,06:20,3.6,�k�k��,4.1
2022/09/26,06:30,3.8,�k�k��,5.1
2022/09/26,06:40,3.9,�k�k��,4.9
2022/09/26,06:50,3.8,�k�k��,5.2
2022/09/26,07:00,3.8,�k�k��,4.0
2022/09/26,07:10,3.6,�k�k��,4.5
2022/09/26,07:20,3.8,�k��,4.4
2022/09/26,07:30,3.8,�k�k��,4.0
2022/09/26,07:40,3.7,�k�k��,4.5
2022/09/26,07:50,3.8,�k�k��,3.5
2022/09/26,08:00,3.7,�k,3.4
2022/09/26,08:10,3.7,�k,3.2
2022/09/26,08:20,3.7,�k,2.3
2022/09/26,08:30,3.8,�k�k��,2.3
2022/09/26,08:40,3.6,�k��,3.5
2022/09/26,08:50,3.8,�k�k��,4.0
2022/09/26,09:00,3.9,�k�k��,4.2
2022/09/26,09:10,3.7,�k�k��,4.5
2022/09/26,09:20,3.6,�k�k��,4.7
2022/09/26,09:30,3.9,�k�k��,4.5
2022/09/26,09:40,3.6,�k�k��,4.5
2022/09/26,09:50,3.8,�k�k��,4.6
2022/09/26,10:00,3.7,�k�k��,4.7
2022/09/26,10:10,3.7,�k�k��,4.8
2022/09/26,10:20,3.8,�k�k��,5.0
2022/09/26,10:30,3.6,�k�k��,5.0
2022/09/26,10:40,3.8,�k��,5.1
2022/09/26,10:50,3.7,�k�k��,4.9
2022/09/26,11:00,3.8,�k�k��,4.9
2022/09/26,11:10,3.8,�k�k��,4.9
2022/09/26,11:20,3.5,�k�k��,4.7
2022/09/26,11:30,3.8,�k�k��,4.2
2022/09/26,11:40,3.8,�k�k��,4.7
2022/09/26,11:50,3.6,�k�k��,4.7
2022/09/26,12:00,3.7,�k��,4.6
2022/09/26,12:10,3.7,�k�k��,3.9
2022/09/26,12:20,3.7,�k�k��,4.5
2022/09/26,12:30,3.7,�k�k��,4.9
2022/09/26,12:40,3.6,�k�k��,4.7
2022/09/26,12:50,3.7,�k�k��,4.0
2022/09/26,13:00,3.8,�k�k��,3.9
2022/09/26,13:10,3.7,�k�k��,3.5
2022/09/26,13:20,3.7,�k�k��,4.5
2022/09/26,13:30,3.7,�k�k��,3.8
2022/09/26,13:40,3.9,�k�k��,3.4
2022/09/26,13:50,3.8,�k�k��,4.2
2022/09/26,14:00,3.7,�k��,3.3
2022/09/26,14:10,3.7,�k��,3.6
2022/09/26,14:20,3.7,�k�k��,3.4
2022/09/26,14:30,3.7,�k��,3.4
2022/09/26,14:40,3.8,�k�k��,3.1
2022/09/26,14:50,3.9,�k�k��,3.2
2022/09/26,15:00,3.6,�k�k��,2.9
2022/09/26,15:10,3.8,�k��,3.2
2022/09/26,15:20,3.6,�k�k��,2.9
2022/09/26,15:30,3.7,�k��,2.6
2022/09/26,15:40,3.8,�k�k��,2.2
2022/09/26,15:50,3.7,�k��,2.3
2022/09/26,16:00,3.9,�k��,2.3
2022/09/26,16:10,3.8,�k��,1.7
2022/09/26,16:20,3.7,�k��,2.0
2022/09/26,16:30,3.8,���k��,1.5
2022/09/26,16:40,3.7,�k��,1.4
2022/09/26,16:50,3.9,���k��,1.2
2022/09/26,17:00,3.6,�k��,1.1
2022/09/26,17:10,3.7,�쓌,0.9
2022/09/26,17:20,3.7,���k��,1.1
2022/09/26,17:30,3.8,�k�k��,1.4
2022/09/26,17:40,3.8,���k��,1.2
2022/09/26,17:50,3.7,-,CALM
2022/09/26,18:00,3.7,���쓌,1.2
2022/09/26,18:10,3.6,�쓌,1.2
2022/09/26,18:20,3.7,��쓌,0.9
2022/09/26,18:30,3.8,��쓌,1.4
2022/09/26,18:40,3.7,�쓌,1.2
2022/09/26,18:50,3.9,�쓌,0.9
2022/09/26,19:00,3.6,��,1.1
2022/09/26,19:10,3.6,��쓌,1.1
2022/09/26,19:20,3.7,��,0.9
2022/09/26,19:30,3.7,-,CALM
2022/09/26,19:40,3.7,-,CALM
2022/09/26,19:50,3.7,-,CALM
2022/09/26,20:00,3.6,-,CALM
2022/09/26,20:10,3.7,��,0.8
2022/09/26,20:20,3.6,���k��,0.8
2022/09/26,20:30,3.7,���k��,0.8
2022/09/26,20:40,3.8,-,CALM
2022/09/26,20:50,3.7,�k�k��,0.6
2022/09/26,21:00,3.8,�k,1.1
2022/09/26,21:10,3.7,�k�k��,1.2
2022/09/26,21:20,3.7,�k�k��,1.1
2022/09/26,21:30,3.7,�k��,1.2
2022/09/26,21:40,3.7,�k,1.2
2022/09/26,21:50,3.8,�k,1.4
2022/09/26,22:00,3.7,�k,1.9
2022/09/26,22:10,3.6,�k,2.3
2022/09/26,22:20,3.6,�k,1.7
2022/09/26,22:30,3.7,�k,2.0
2022/09/26,22:40,3.8,�k�k��,2.5
2022/09/26,22:50,3.6,�k�k��,2.0
2022/09/26,23:00,3.7,�k��,2.2
2022/09/26,23:10,3.6,�k��,2.2
2022/09/26,23:20,3.8,�k��,1.4
2022/09/26,23:30,3.5,�k�k��,1.2
2022/09/26,23:40,3.7,�k�k��,1.5
2022/09/26,23:50,3.7,�k�k��,2.0
